SCP
0 0 0 0 0 0 0 0 0 0 -0 0 0 0 -0 0 0 0 0 0 0 0 0 0 0 0 0 0 0 0 0 0 0 0 0 0 0 0 0 0 0 0 0
0 0 0 0 0 0 0 0 -0 0 0 0 0 0 0 0 0 0 0 0 0 0 0 0 0 0 0 0 0 0 0 0 0 0 0 0 0 0 0 0 0 0 0
0 0 0 0 0 0 -0 -0 0 0 0 0 0 0 0 0 0 0 0 0 0 0 0 0 0 0 0 0 0 0 0 0 0 0 0 0 0 0 0 0 0 0 0
0 0 0 0 0 0 0 0 0 0 0 0 0 0 0 0 0 0 0 0 0 0 0 0 0 0 0 0 0 0 0 0 -0 0 0 0 0 0 0 0 0 0 0
0 0 0 0 0 0 0 0 0 0 0 0 0 0 0 0 0 0 0 0 0 0 0 0 0 0 0 0 0 0 0 0 0 0 0 0 0 0 0 0 0 0 0
0 0 0 0 0 0 0 0 0 0 0 0 0 0 0 0 0 0 0 0 0 0 0 0 0 0 0 0 0 0 0 0 0 0 0 0 0 0 0 0 0 0 0
0 0 0 0 0 0 0 0 0 0 0 0 0 0 0 0 0 0 0 0 0 0 0 0 0 0 0 0 0 0 0 0 0 0 0 0 0 0 0 0 0 0 0
0 0 0 0 0 0 0 0 0 0 0 0 0 0 0 0 0 0 0 0 0 0 0 0 0 0 0 0 0 0 0 0 0 0 0 0 0 0 0 0 0 0 0
0 0 0 0 0 0 0 0 0 0 0 0 0 0 0 0 0 0 0 0 0 0 0 0 0 0 0 0 0 0 0 0 0 0 0 0 0 0 0 0 0 0 0
0 0 0 0 0 0 0 0 0 0 0 0 0 0 0 0 0 0 0 0 0 0 0 0 0 0 0 0 0 0 0 0 0 0 0 0 0 0 0 0 0 0 0
0 0 0 0 0 0 0 0 0 0 0 0 0 0 0 0 0 0 0 0 0 0 0 0 0 0 0 0 0 0 0 0 0 0 0 0 0 0 0 0 0 0 0
0 0 0 0 0 0 0 0 0 0 0 0 0 0 0 0 0 0 0 0 0 0 0 0 0 0 0 0 0 0 0 0 0 0 0 0 0 0 0 0 0 0 0
0 0 0 0 0 0 0 0 0 0 0 0 0 0 0 0 0 0 0 0 0 0 0 0 0 0 0 0 0 0 0 0 0 0 0 0 0 0 0 0 0 0 0
0 0 0 0 0 0 0 0 0 0 0 0 0 0 0 0 0 0 0 0 0 0 0 0 -0 -0 -0 0 0 0 0 0 0 0 0 0 0 0 0 0 0 0 0
0 0 0 0 0 0 0 0 0 0 0 0 0 0 0 0 0 0 0 0 0 0 0 0 0 -0 -0 0 0 0 0 0 0 -0 -0 0 0 0 0 0 0 0 0
0 0 0 0 0 0 0 0 0 0 0 0 0 0 0 0 0 0 0 0 0 0 0 0 0 0 -0 -0 -0 0 0 0 -0 -0 0 0 0 0 0 0 0 0 0
0 0 0 0 0 0 0 0 0 0 0 0 0 0 0 0 0 0 0 0 0 0 0 0 0 0 -0 0 0 0 0 0 0 0 0 0 0 0 0 0 0 0 0
0 0 0 0 0 0 0 0 0 0 0 0 0 0 -0 0 0 0 0 0 0 0 0 0 0 -0 -0 -0 -0 -0 0 0 0 0 0 0 0 0 0 0 0 0 0
0 0 0 0 0 0 0 0 0 0 0 0 0 0 -0 -0 0 0 0 0 0 0 0 0 0 -0 -0 -0 -0 -0 0 0 0 0 0 0 0 0 0 0 0 0 0
0 0 0 0 0 0 0 0 0 0 0 0 0 0 0 0 -0 0 0 0 0 0 0 0 0 -0 -0 -0 -0 -0 0 0 0 0 0 0 0 -0 0 0 0 0 0
0 0 0 0 0 0 0 0 0 0 0 0 0 0 0 0 0 0 0 0 0 0 0 0 0 0 0 0 -0 -0 0 0 -0 0 0 0 -0 -0 0 0 0 0 0
0 0 0 0 0 0 0 0 0 0 0 0 0 0 0 0 0 0 -0 0 0 0 0 -0 0 0 0 -0 -0 -0 -0 -0 -0 -0 0 0 -0 0 0 0 -0 -0 0
0 0 0 0 0 0 0 0 0 0 0 0 0 0 0 0 0 0 0 0 0 0 0 0 -0 0 0 0 -0 -0 -0 -0 -0 0 0 -0 -0 -0 -0 -0 -0 -0 -0
0 0 0 0 0 0 0 0 0 0 0 0 0 0 0 0 0 0 0 0 -0 -0 -0 -0 -0 0 0 0 0 0 0 -0 -0 0 0 -0 -0 -0 -0 -0 -0 0 0
0 0 0 0 0 0 0 0 0 0 0 0 0 0 0 0 0 0 0 0 0 0 0 0 0 0 0 0 -0 0 0 0 0 0 0 0 0 -0 -0 -0 -0 0 0
0 0 0 0 0 0 0 0 0 0 0 0 0 0 0 0 0 0 0 0 0 0 0 0 0 0 0 0 0 0 0 0 0 0 0 0 0 0 0 0 0 0 0
Wind_Speed_500mb
19 10 7 13 22 33 45 59 72 82 92 98 100 98 91 82 78 73 71 73 74 76 77 81 86 85 87 85 81 72 104 81 101 100 95 101 100 101 108 105 104 99 101
16 11 13 21 32 45 58 69 79 86 92 92 85 79 79 77 77 73 68 63 63 64 62 64 71 78 91 95 93 85 83 109 79 90 90 79 95 107 110 110 105 104 103
10 13 21 32 44 57 68 75 79 85 85 78 76 73 75 79 80 77 73 65 60 60 62 64 66 72 76 92 90 88 93 92 109 102 70 56 52 83 106 117 115 108 108
11 19 31 42 53 60 67 73 79 81 77 70 70 70 73 79 78 80 79 72 64 61 62 63 65 70 76 82 85 80 93 101 99 113 99 88 76 58 52 101 111 113 108
17 24 36 46 52 60 68 75 79 76 71 67 64 67 71 72 72 70 73 72 72 67 62 64 65 68 74 77 76 79 80 95 102 105 116 80 93 85 77 64 113 107 123
20 29 40 48 55 60 69 76 78 73 67 65 63 63 65 65 67 65 68 70 72 75 73 64 66 67 73 81 79 70 77 83 96 102 103 92 87 105 91 75 88 130 127
23 36 43 46 53 61 69 75 75 74 68 66 63 60 57 57 63 66 70 75 79 77 76 72 68 69 69 76 85 94 86 71 78 82 92 118 94 93 107 87 78 95 112
27 37 38 45 51 59 68 71 72 71 66 64 62 58 56 60 62 67 70 75 80 81 76 73 70 68 69 67 70 81 98 93 80 90 79 105 131 81 84 99 83 59 92
31 37 39 44 49 58 65 67 69 67 63 62 63 59 58 60 64 66 70 75 79 80 78 74 69 67 71 67 68 66 68 76 86 91 88 86 92 119 77 85 89 96 71
36 41 40 42 46 53 59 61 63 64 62 61 62 61 59 59 62 65 68 71 75 73 72 75 74 67 68 67 72 85 85 80 84 86 86 82 79 96 100 91 100 102 94
40 44 38 38 42 48 56 60 62 63 63 64 65 62 60 59 60 61 64 67 70 70 66 70 71 66 62 57 54 63 65 64 76 84 85 74 70 78 108 103 106 101 91
46 38 33 34 38 46 53 56 58 60 61 64 66 62 58 57 57 59 59 59 64 63 62 61 64 65 58 57 61 63 64 72 69 79 68 67 72 79 96 100 95 101 89
40 29 26 30 34 41 49 53 55 59 61 63 64 61 57 56 56 57 55 58 59 54 50 50 55 59 59 54 55 61 60 57 65 69 78 56 72 84 88 96 87 82 88
27 24 22 25 31 37 44 49 51 54 58 61 63 60 56 54 54 53 50 51 50 46 38 36 41 44 53 53 55 63 64 61 67 71 81 51 73 81 80 87 91 77 80
22 20 17 22 28 34 39 44 48 51 53 57 60 61 55 50 49 48 46 42 42 37 29 22 25 38 44 45 46 51 60 65 62 72 74 60 65 65 80 79 89 59 85
23 16 15 20 24 30 36 42 45 47 49 51 56 59 58 53 48 43 39 34 32 31 24 18 14 9 24 44 41 40 46 52 58 60 66 60 58 56 62 81 69 59 63
21 15 13 15 19 25 29 35 39 41 43 47 51 54 55 53 48 43 38 36 36 35 32 24 18 17 12 7 26 31 32 33 42 55 52 55 61 68 66 60 45 42 43
22 16 10 10 15 19 21 26 30 33 38 42 47 50 51 53 51 48 41 39 39 39 41 39 34 33 31 15 7 17 21 31 42 45 52 54 55 52 53 51 50 45 32
18 16 10 8 11 15 15 18 23 27 30 38 44 49 51 52 56 56 56 53 51 47 46 47 46 43 37 21 14 20 31 38 38 38 40 43 45 40 42 50 51 43 39
17 16 13 11 10 12 12 12 16 19 25 33 40 43 46 50 53 55 60 63 65 67 61 58 58 52 45 32 41 49 59 62 59 54 50 44 43 38 34 41 48 56 48
18 19 18 15 12 8 9 9 10 12 19 26 29 32 37 41 46 48 54 60 67 70 74 75 77 74 66 58 55 56 62 64 63 62 59 52 45 39 37 39 41 44 47
25 24 25 21 18 12 8 7 3 6 12 17 21 25 29 33 37 41 46 51 56 62 67 71 75 76 74 68 64 62 63 61 65 66 60 54 50 47 45 45 46 47 43
33 30 29 27 25 20 13 10 7 3 4 10 11 15 21 24 28 33 38 42 45 50 54 57 59 62 63 62 59 56 52 53 58 57 53 48 46 48 50 47 47 44 42
42 35 35 36 34 28 20 16 13 11 7 4 3 7 12 18 24 27 31 34 40 42 46 47 48 48 50 49 47 46 44 44 46 47 45 41 39 39 41 44 45 42 38
41 42 43 42 38 36 30 23 20 18 16 11 7 2 3 8 12 15 20 25 29 33 36 39 36 37 41 42 39 36 36 36 37 33 36 34 34 37 38 37 36 33 32
41 48 49 49 43 44 40 34 27 23 23 19 13 7 5 3 2 5 9 13 17 19 21 23 24 26 29 28 26 27 26 26 29 25 25 26 26 26 26 24 23 22 21
Wind_Direction_500mb
165 182 241 280 292 303 307 310 312 313 313 309 307 304 302 300 298 296 290 286 282 277 272 268 263 258 260 257 257 264 255 259 231 228 218 225 228 232 229 225 225 230 233
186 228 274 300 311 316 318 317 317 313 310 310 309 306 305 301 300 299 296 292 288 283 275 268 265 259 252 254 255 248 252 252 247 216 216 210 218 223 225 223 226 229 233
225 276 300 316 319 319 319 318 316 314 313 312 307 304 302 300 302 302 300 295 289 284 280 274 266 262 258 252 253 250 244 250 247 243 213 198 211 216 217 219 223 226 229
264 302 315 316 319 320 320 319 319 318 317 316 309 307 305 304 304 303 301 299 295 289 283 277 270 263 260 255 251 246 242 246 249 243 253 217 210 198 215 219 217 220 231
274 306 319 322 324 327 326 328 324 322 319 316 313 308 304 302 301 299 299 300 300 295 288 281 274 265 257 254 251 247 242 240 245 238 235 234 213 216 214 215 212 224 219
284 313 319 322 329 329 331 330 326 325 324 319 315 310 306 304 302 302 300 301 300 298 295 288 278 268 257 250 243 245 244 243 245 244 233 234 219 209 211 217 222 216 220
306 316 318 326 326 332 332 330 328 327 327 324 321 315 308 305 301 303 304 303 300 297 296 295 291 278 262 253 247 240 235 232 229 234 238 230 242 223 218 215 218 211 216
315 318 324 326 331 334 336 332 332 332 330 328 324 319 313 308 306 304 301 296 293 294 295 290 288 280 275 256 250 247 240 239 240 238 238 232 234 241 222 213 214 206 217
327 324 320 325 332 338 338 335 335 334 333 331 327 321 318 313 310 306 301 298 297 294 291 285 282 279 270 253 240 238 240 237 235 240 241 242 241 233 244 225 217 215 213
326 323 319 326 335 339 337 341 341 338 336 333 329 326 321 317 314 309 304 302 299 292 287 281 278 276 265 257 246 239 234 234 227 229 234 242 243 234 234 240 227 224 224
315 315 312 326 333 340 343 347 345 344 342 339 334 329 327 324 319 314 310 305 303 299 288 275 272 271 260 250 245 237 235 230 237 233 232 230 237 235 231 242 229 229 221
301 300 308 326 338 345 347 350 347 348 348 344 338 332 332 331 325 322 318 314 308 305 294 275 265 263 253 245 243 241 242 242 231 226 226 229 227 227 224 227 232 234 232
291 287 306 327 343 348 350 351 349 349 350 349 342 339 337 335 333 331 330 325 318 313 302 282 266 256 250 241 239 235 234 233 232 227 221 233 223 223 228 227 227 239 239
277 285 306 334 346 349 353 354 353 352 353 355 350 346 345 342 341 336 334 331 326 320 311 290 267 259 251 246 237 235 235 232 234 221 220 221 225 231 231 232 232 233 239
275 278 310 335 344 350 357 359 358 358 359 1 360 358 354 351 347 344 344 343 340 333 327 311 276 254 244 238 235 227 227 230 229 213 217 227 230 233 237 237 227 228 228
278 274 310 330 345 351 0 4 4 6 4 9 8 5 4 2 360 358 358 4 5 1 1 16 7 325 251 236 231 231 230 230 223 219 219 229 228 226 231 229 226 240 236
272 260 292 322 345 350 1 6 11 14 10 15 14 11 13 14 13 12 11 22 24 28 33 42 56 51 59 183 203 203 208 210 209 216 229 226 223 224 217 218 215 213 204
251 244 270 314 339 341 358 9 15 20 20 25 29 22 23 28 30 32 30 39 42 42 45 47 49 62 57 31 40 171 188 206 207 211 210 204 197 196 195 193 185 185 183
234 243 255 293 317 332 350 8 16 24 28 32 38 37 34 37 40 42 46 49 52 50 54 59 59 60 69 76 109 149 156 153 145 151 156 158 154 157 171 171 166 158 166
238 242 247 263 291 319 334 357 14 23 36 41 38 41 43 45 47 51 54 57 61 63 58 64 69 74 81 100 120 126 127 123 120 121 123 127 128 134 149 161 153 150 144
246 247 247 253 268 291 314 330 10 32 44 49 47 43 43 46 49 49 54 60 64 64 67 67 69 73 78 83 92 101 105 105 108 107 105 104 108 118 131 133 134 132 128
250 251 244 244 249 254 270 289 329 57 55 51 44 47 48 48 53 55 58 58 62 64 68 71 72 75 78 76 79 85 93 102 103 101 100 101 106 110 110 110 110 112 117
254 247 246 244 243 244 251 255 238 200 86 70 58 58 56 54 51 51 56 59 59 64 67 70 74 74 72 77 79 80 83 89 95 96 97 106 113 116 112 107 107 109 111
256 250 245 244 240 239 235 240 238 233 221 160 95 65 59 54 49 48 48 52 61 61 65 65 65 72 77 77 78 83 86 89 92 101 110 112 111 110 107 110 110 112 111
259 247 248 246 238 235 230 229 235 239 241 233 206 219 71 68 56 48 45 48 52 55 57 62 64 71 76 78 84 88 91 94 96 103 107 109 114 115 115 117 118 118 121
262 248 246 243 234 233 232 225 228 236 243 247 246 242 262 286 9 16 37 50 44 47 59 67 68 69 70 70 68 71 80 87 95 102 103 108 108 110 113 116 125 133 144
Wind_Speed_850mb
19 10 7 13 22 33 45 59 72 82 92 98 100 98 91 82 78 73 71 73 74 76 77 81 86 85 87 85 81 72 104 81 101 100 95 101 100 101 108 105 104 99 101
16 11 13 21 32 45 58 69 79 86 92 92 85 79 79 77 77 73 68 63 63 64 62 64 71 78 91 95 93 85 83 109 79 90 90 79 95 107 110 110 105 104 103
10 13 21 32 44 57 68 75 79 85 85 78 76 73 75 79 80 77 73 65 60 60 62 64 66 72 76 92 90 88 93 92 109 102 70 56 52 83 106 117 115 108 108
11 19 31 42 53 60 67 73 79 81 77 70 70 70 73 79 78 80 79 72 64 61 62 63 65 70 76 82 85 80 93 101 99 113 99 88 76 58 52 101 111 113 108
17 24 36 46 52 60 68 75 79 76 71 67 64 67 71 72 72 70 73 72 72 67 62 64 65 68 74 77 76 79 80 95 102 105 116 80 93 85 77 64 113 107 123
20 29 40 48 55 60 69 76 78 73 67 65 63 63 65 65 67 65 68 70 72 75 73 64 66 67 73 81 79 70 77 83 96 102 103 92 87 105 91 75 88 130 127
23 36 43 46 53 61 69 75 75 74 68 66 63 60 57 57 63 66 70 75 79 77 76 72 68 69 69 76 85 94 86 71 78 82 92 118 94 93 107 87 78 95 112
27 37 38 45 51 59 68 71 72 71 66 64 62 58 56 60 62 67 70 75 80 81 76 73 70 68 69 67 70 81 98 93 80 90 79 105 131 81 84 99 83 59 92
31 37 39 44 49 58 65 67 69 67 63 62 63 59 58 60 64 66 70 75 79 80 78 74 69 67 71 67 68 66 68 76 86 91 88 86 92 119 77 85 89 96 71
36 41 40 42 46 53 59 61 63 64 62 61 62 61 59 59 62 65 68 71 75 73 72 75 74 67 68 67 72 85 85 80 84 86 86 82 79 96 100 91 100 102 94
40 44 38 38 42 48 56 60 62 63 63 64 65 62 60 59 60 61 64 67 70 70 66 70 71 66 62 57 54 63 65 64 76 84 85 74 70 78 108 103 106 101 91
46 38 33 34 38 46 53 56 58 60 61 64 66 62 58 57 57 59 59 59 64 63 62 61 64 65 58 57 61 63 64 72 69 79 68 67 72 79 96 100 95 101 89
40 29 26 30 34 41 49 53 55 59 61 63 64 61 57 56 56 57 55 58 59 54 50 50 55 59 59 54 55 61 60 57 65 69 78 56 72 84 88 96 87 82 88
27 24 22 25 31 37 44 49 51 54 58 61 63 60 56 54 54 53 50 51 50 46 38 36 41 44 53 53 55 63 64 61 67 71 81 51 73 81 80 87 91 77 80
22 20 17 22 28 34 39 44 48 51 53 57 60 61 55 50 49 48 46 42 42 37 29 22 25 38 44 45 46 51 60 65 62 72 74 60 65 65 80 79 89 59 85
23 16 15 20 24 30 36 42 45 47 49 51 56 59 58 53 48 43 39 34 32 31 24 18 14 9 24 44 41 40 46 52 58 60 66 60 58 56 62 81 69 59 63
21 15 13 15 19 25 29 35 39 41 43 47 51 54 55 53 48 43 38 36 36 35 32 24 18 17 12 7 26 31 32 33 42 55 52 55 61 68 66 60 45 42 43
22 16 10 10 15 19 21 26 30 33 38 42 47 50 51 53 51 48 41 39 39 39 41 39 34 33 31 15 7 17 21 31 42 45 52 54 55 52 53 51 50 45 32
18 16 10 8 11 15 15 18 23 27 30 38 44 49 51 52 56 56 56 53 51 47 46 47 46 43 37 21 14 20 31 38 38 38 40 43 45 40 42 50 51 43 39
17 16 13 11 10 12 12 12 16 19 25 33 40 43 46 50 53 55 60 63 65 67 61 58 58 52 45 32 41 49 59 62 59 54 50 44 43 38 34 41 48 56 48
18 19 18 15 12 8 9 9 10 12 19 26 29 32 37 41 46 48 54 60 67 70 74 75 77 74 66 58 55 56 62 64 63 62 59 52 45 39 37 39 41 44 47
25 24 25 21 18 12 8 7 3 6 12 17 21 25 29 33 37 41 46 51 56 62 67 71 75 76 74 68 64 62 63 61 65 66 60 54 50 47 45 45 46 47 43
33 30 29 27 25 20 13 10 7 3 4 10 11 15 21 24 28 33 38 42 45 50 54 57 59 62 63 62 59 56 52 53 58 57 53 48 46 48 50 47 47 44 42
42 35 35 36 34 28 20 16 13 11 7 4 3 7 12 18 24 27 31 34 40 42 46 47 48 48 50 49 47 46 44 44 46 47 45 41 39 39 41 44 45 42 38
41 42 43 42 38 36 30 23 20 18 16 11 7 2 3 8 12 15 20 25 29 33 36 39 36 37 41 42 39 36 36 36 37 33 36 34 34 37 38 37 36 33 32
41 48 49 49 43 44 40 34 27 23 23 19 13 7 5 3 2 5 9 13 17 19 21 23 24 26 29 28 26 27 26 26 29 25 25 26 26 26 26 24 23 22 21
Wind_Direction_850mb
165 182 241 280 292 303 307 310 312 313 313 309 307 304 302 300 298 296 290 286 282 277 272 268 263 258 260 257 257 264 255 259 231 228 218 225 228 232 229 225 225 230 233
186 228 274 300 311 316 318 317 317 313 310 310 309 306 305 301 300 299 296 292 288 283 275 268 265 259 252 254 255 248 252 252 247 216 216 210 218 223 225 223 226 229 233
225 276 300 316 319 319 319 318 316 314 313 312 307 304 302 300 302 302 300 295 289 284 280 274 266 262 258 252 253 250 244 250 247 243 213 198 211 216 217 219 223 226 229
264 302 315 316 319 320 320 319 319 318 317 316 309 307 305 304 304 303 301 299 295 289 283 277 270 263 260 255 251 246 242 246 249 243 253 217 210 198 215 219 217 220 231
274 306 319 322 324 327 326 328 324 322 319 316 313 308 304 302 301 299 299 300 300 295 288 281 274 265 257 254 251 247 242 240 245 238 235 234 213 216 214 215 212 224 219
284 313 319 322 329 329 331 330 326 325 324 319 315 310 306 304 302 302 300 301 300 298 295 288 278 268 257 250 243 245 244 243 245 244 233 234 219 209 211 217 222 216 220
306 316 318 326 326 332 332 330 328 327 327 324 321 315 308 305 301 303 304 303 300 297 296 295 291 278 262 253 247 240 235 232 229 234 238 230 242 223 218 215 218 211 216
315 318 324 326 331 334 336 332 332 332 330 328 324 319 313 308 306 304 301 296 293 294 295 290 288 280 275 256 250 247 240 239 240 238 238 232 234 241 222 213 214 206 217
327 324 320 325 332 338 338 335 335 334 333 331 327 321 318 313 310 306 301 298 297 294 291 285 282 279 270 253 240 238 240 237 235 240 241 242 241 233 244 225 217 215 213
326 323 319 326 335 339 337 341 341 338 336 333 329 326 321 317 314 309 304 302 299 292 287 281 278 276 265 257 246 239 234 234 227 229 234 242 243 234 234 240 227 224 224
315 315 312 326 333 340 343 347 345 344 342 339 334 329 327 324 319 314 310 305 303 299 288 275 272 271 260 250 245 237 235 230 237 233 232 230 237 235 231 242 229 229 221
301 300 308 326 338 345 347 350 347 348 348 344 338 332 332 331 325 322 318 314 308 305 294 275 265 263 253 245 243 241 242 242 231 226 226 229 227 227 224 227 232 234 232
291 287 306 327 343 348 350 351 349 349 350 349 342 339 337 335 333 331 330 325 318 313 302 282 266 256 250 241 239 235 234 233 232 227 221 233 223 223 228 227 227 239 239
277 285 306 334 346 349 353 354 353 352 353 355 350 346 345 342 341 336 334 331 326 320 311 290 267 259 251 246 237 235 235 232 234 221 220 221 225 231 231 232 232 233 239
275 278 310 335 344 350 357 359 358 358 359 1 360 358 354 351 347 344 344 343 340 333 327 311 276 254 244 238 235 227 227 230 229 213 217 227 230 233 237 237 227 228 228
278 274 310 330 345 351 0 4 4 6 4 9 8 5 4 2 360 358 358 4 5 1 1 16 7 325 251 236 231 231 230 230 223 219 219 229 228 226 231 229 226 240 236
272 260 292 322 345 350 1 6 11 14 10 15 14 11 13 14 13 12 11 22 24 28 33 42 56 51 59 183 203 203 208 210 209 216 229 226 223 224 217 218 215 213 204
251 244 270 314 339 341 358 9 15 20 20 25 29 22 23 28 30 32 30 39 42 42 45 47 49 62 57 31 40 171 188 206 207 211 210 204 197 196 195 193 185 185 183
234 243 255 293 317 332 350 8 16 24 28 32 38 37 34 37 40 42 46 49 52 50 54 59 59 60 69 76 109 149 156 153 145 151 156 158 154 157 171 171 166 158 166
238 242 247 263 291 319 334 357 14 23 36 41 38 41 43 45 47 51 54 57 61 63 58 64 69 74 81 100 120 126 127 123 120 121 123 127 128 134 149 161 153 150 144
246 247 247 253 268 291 314 330 10 32 44 49 47 43 43 46 49 49 54 60 64 64 67 67 69 73 78 83 92 101 105 105 108 107 105 104 108 118 131 133 134 132 128
250 251 244 244 249 254 270 289 329 57 55 51 44 47 48 48 53 55 58 58 62 64 68 71 72 75 78 76 79 85 93 102 103 101 100 101 106 110 110 110 110 112 117
254 247 246 244 243 244 251 255 238 200 86 70 58 58 56 54 51 51 56 59 59 64 67 70 74 74 72 77 79 80 83 89 95 96 97 106 113 116 112 107 107 109 111
256 250 245 244 240 239 235 240 238 233 221 160 95 65 59 54 49 48 48 52 61 61 65 65 65 72 77 77 78 83 86 89 92 101 110 112 111 110 107 110 110 112 111
259 247 248 246 238 235 230 229 235 239 241 233 206 219 71 68 56 48 45 48 52 55 57 62 64 71 76 78 84 88 91 94 96 103 107 109 114 115 115 117 118 118 121
262 248 246 243 234 233 232 225 228 236 243 247 246 242 262 286 9 16 37 50 44 47 59 67 68 69 70 70 68 71 80 87 95 102 103 108 108 110 113 116 125 133 144